Custer, SD (57730)

2:07 AM MST on February 22, 2017 (GMT -0700)
Hay Creek Road | | Change Station
Active Advisory: Winter Storm Watch

Elev 5325 ft 43.70 °N, 103.67 °W | Updated 3 seconds ago

Overcast
Overcast
37.4 °F
Feels Like 37 °F
N
2.9
Wind Variable Wind from NW
Gusts 4.9 mph

Today
High -- | Low -- °F
--% Chance of Precip.
Yesterday
High -- | Low -- °F
Precip. -- in
Pressure 29.68 in
Visibility 10.0 miles
Clouds Overcast 9500 ft
Windchill 37 °F
Dew Point 33 °F
Humidity 83%
Rainfall 0.00 in
Snow Depth Not available.
6:41 AM 5:34 PM
Waning Crescent, 19% visible
METAR KCUT 220853Z AUTO 26006KT 10SM OVC095 02/M01 A2976 RMK AO2 SLP050 60005 T00221011 55002
Pressure 29.68 in
Visibility 10.0 miles
Clouds Overcast 9500 ft
Windchill 37 °F
Dew Point 33 °F
Humidity 83%
Rainfall 0.00 in
Snow Depth Not available.
6:41 AM 5:34 PM
Waning Crescent, 19% visible
METAR KCUT 220853Z AUTO 26006KT 10SM OVC095 02/M01 A2976 RMK AO2 SLP050 60005 T00221011 55002

Get Your Daily Forecast Email!

Thanks for signing up!

Be on the lookout for a verification email in your inbox.

You'll start receiving the daily forecast at 8 AM.

×

10-Day Weather Forecast

Almanac

Astronomy

Feb. 22, 2017 Rise Set
Actual Time
Civil Twilight
Nautical Twilight
Astronomical Twilight
Moon
Length of Visible Light
Length of Day
Tomorrow will be .
, % of the Moon is Illuminated

Today's Extremes

State Highs State Lows

Community

WunderPhotos

Upload Photos

1,962,540 photos uploaded!

WunderBlog® & News

Nearby

Air Quality

  Air Quality AQ Index Pollutant
Not available.

Snow Depth

Station Depth Elevation

Earthquake Activity

City Distance Mag. Time & Date
Minimum magnitude displayed is 2.5.

Coastal Water Temperatures

Place Temperature

Stations

Nearby Weather Stations

Station Location Temp. Windchill Dew Point Humidity Wind Precip. Elev Updated Type
                   

Watches & Warnings

Winter Storm Watch
Issued: 2:46 PM MST Feb. 21, 2017 – National Weather Service

... Winter Storm Watch in effect from late Wednesday night through
Friday morning...

The National Weather Service in Rapid City has issued a Winter
Storm Watch, which is in effect from late Wednesday night through
Friday morning.

* Timing... snow will begin late Wednesday night and continue
through Thursday. Snow will end late Thursday night into Friday
morning.

* Main impact... snow amounts of 6 inches or more are possible.

* Other impacts... slippery and hazardous Road conditions will be
possible. Travel may be difficult at times.


Precautionary/preparedness actions...

A Winter Storm Watch means heavy snow... strong winds... freezing
precipitation... and cold temperatures are possible. Monitor NOAA
Weather Radio... local radio or television... or the internet for
updates on this potentially dangerous storm. Take time to prepare
for severe winter conditions before the storm develops.